Terminal Aerodrome Forecast
Issued by NWS

Current Version | Previous Version | Graphics & Text | Print | Product List | Glossary On
Versions: 1 2 3 4 5 6 7 8 9 10 11 12 13 14 15 16 17 18 19
027
FTUS41 KPBZ 221559 AAA
TAFMGW
TAF AMD
KMGW 221559Z 2216/2312 35007KT P6SM SCT026 OVC035
     FM222300 36005KT P6SM BKN020
     FM230200 35003KT P6SM BKN010=

USA.gov is the U.S. government's official web portal to all federal, state and local government web resources and services.